Vorticity
2 2 3 3 3 3 4 4 5 5 5 5 5 5 5 5 5 5 5 5 5 4 5 5 6 11 12 9 8 8 7 6 5 4 4 3 4 6 6 6 8 10 9 9 10 9 9 10 7 8 9 9 9 6 5 5 6 8 9 8 7 6 5 5 7 9 9 7 5 4 4 7 9 8 6 4 5 6 6 6 5 6 6 6 6 4
3 3 3 2 3 3 4 5 5 4 4 5 5 4 5 5 4 5 5 5 5 5 5 5 8 12 12 11 10 8 7 6 5 4 3 3 5 7 7 8 9 10 9 9 10 8 9 8 7 8 9 9 8 6 5 5 6 9 10 10 8 7 6 5 6 8 9 7 6 5 4 5 8 9 7 4 4 5 5 6 6 6 6 6 7 5
4 3 2 2 3 4 4 5 4 4 4 4 4 4 5 6 5 5 6 5 6 6 5 7 9 11 11 12 11 8 7 5 5 5 3 5 8 8 8 9 8 9 10 11 10 7 8 7 7 8 9 8 8 6 6 5 5 7 9 10 10 9 7 5 5 7 8 8 7 7 4 4 5 8 9 7 5 4 4 5 6 6 6 6 7 7
3 2 3 3 3 4 4 5 4 4 4 3 4 5 5 6 6 6 5 6 6 7 8 9 9 8 11 13 10 6 6 4 4 5 4 7 9 9 9 8 8 8 9 10 9 6 7 7 8 9 8 8 8 7 6 5 5 6 7 9 10 11 9 7 6 5 6 8 8 7 6 3 3 5 8 9 6 4 3 4 6 6 5 5 7 8
2 2 4 4 3 4 4 5 4 3 3 4 5 5 6 6 7 7 6 6 6 6 8 10 9 6 6 8 7 5 4 4 5 5 6 9 10 9 9 7 7 8 9 10 9 6 6 7 8 8 8 8 8 7 7 6 5 5 5 7 9 11 11 10 8 7 6 6 8 8 7 4 3 4 6 8 7 5 3 3 5 6 5 5 7 8
3 3 4 4 4 5 5 5 4 4 4 5 6 6 6 6 7 7 7 7 7 6 6 8 9 6 3 6 7 4 5 6 6 7 9 10 9 8 7 7 8 9 8 10 9 6 5 6 8 8 8 8 8 8 8 7 5 5 5 5 8 10 11 11 11 10 8 6 7 8 9 7 4 4 5 6 7 6 5 4 3 5 6 6 7 9
3 3 4 4 5 5 5 5 4 5 5 6 7 7 7 7 7 7 7 7 7 5 4 5 7 4 2 6 5 3 7 8 7 9 10 8 7 7 7 9 10 8 8 10 8 5 4 6 8 7 7 7 8 9 8 7 6 6 6 5 6 8 9 11 10 11 10 7 7 8 10 9 6 6 6 5 5 5 6 5 3 4 6 6 6 9
3 4 4 4 5 5 5 5 5 7 7 7 7 6 7 7 7 7 7 6 5 4 4 4 5 3 3 8 6 4 8 8 8 11 9 6 6 7 9 11 10 8 9 9 5 4 5 7 7 6 6 6 8 9 8 7 6 6 6 4 6 8 9 10 10 10 10 8 8 8 10 10 8 8 7 5 4 4 7 7 4 4 5 6 7 9
3 4 4 5 5 5 5 6 7 8 7 7 7 7 7 6 7 6 5 4 4 3 4 4 4 2 5 13 13 10 12 9 9 10 6 6 8 8 10 11 9 8 7 6 4 4 6 5 5 5 6 6 7 8 8 7 6 5 5 4 6 8 9 10 10 9 9 8 8 8 8 8 9 11 10 6 3 3 6 7 5 4 4 6 7 8
4 5 5 5 5 6 8 7 7 7 7 7 7 6 6 5 6 4 3 4 3 4 4 4 5 3 5 13 12 11 12 8 8 9 6 7 8 7 8 8 8 10 6 3 4 6 6 4 4 6 7 7 7 7 7 6 6 5 3 4 7 9 10 11 11 10 10 9 8 8 8 9 9 12 12 9 5 3 5 8 7 5 4 5 6 8
5 6 5 6 7 8 8 7 7 7 7 7 6 6 5 4 4 3 3 4 3 5 5 4 4 3 9 17 13 8 9 7 9 9 7 8 7 5 7 7 9 9 3 3 6 7 5 2 4 6 6 7 6 6 6 5 6 5 2 4 8 9 10 11 11 10 9 8 9 8 8 10 10 11 13 10 6 4 5 7 8 6 5 6 7 8
6 6 7 8 8 7 7 7 7 6 6 6 5 5 4 3 4 3 3 4 4 5 4 4 6 6 14 20 13 6 7 9 10 9 9 9 6 4 6 7 8 7 3 4 6 7 5 3 5 6 6 7 6 5 5 5 6 4 2 6 8 7 9 11 9 8 9 10 10 9 9 11 11 11 12 11 8 6 5 7 8 7 6 6 7 8
6 7 8 8 7 7 7 7 6 5 5 4 4 5 5 5 5 3 4 5 4 5 5 6 7 9 15 15 7 7 9 10 10 10 10 6 2 4 7 7 6 6 6 4 5 7 6 5 5 5 6 6 6 5 4 5 6 4 3 7 7 6 8 10 8 8 11 12 11 11 11 12 12 11 11 11 9 7 6 7 8 8 7 7 8 8
7 8 8 8 7 7 6 5 5 4 4 4 5 5 5 8 7 5 6 5 5 7 6 7 9 10 11 8 8 11 11 10 11 11 8 1 -0 5 7 7 6 8 7 4 5 7 7 6 5 5 6 6 6 5 4 5 5 4 5 7 6 6 8 10 9 10 12 12 12 13 13 13 12 12 11 10 10 8 7 8 8 8 7 7 9 8
6 7 7 6 7 6 5 5 4 4 4 5 6 6 7 9 6 5 7 7 8 7 6 8 9 8 9 10 11 11 9 12 12 7 2 -1 3 9 9 7 8 9 8 5 5 7 7 6 4 4 6 7 6 3 4 6 5 4 5 6 5 6 9 9 8 9 10 10 12 13 13 13 11 10 10 10 10 9 9 10 8 8 8 8 9 9
7 6 5 5 4 4 5 5 5 6 6 6 6 7 8 7 5 5 6 8 8 5 6 9 7 6 10 12 13 12 13 13 8 2 1 2 7 10 9 9 11 10 8 6 7 7 6 5 4 6 7 6 4 3 5 6 5 4 4 4 6 8 9 9 8 9 10 10 11 12 13 12 10 9 10 11 11 10 10 11 9 8 9 8 9 10
6 5 4 4 4 5 6 5 6 7 7 8 8 8 7 6 7 6 4 6 7 4 4 8 8 9 12 14 15 14 11 8 4 3 4 6 9 11 12 13 12 9 7 7 8 6 5 5 5 7 6 5 4 4 6 6 5 4 3 4 8 8 8 9 8 9 11 11 10 11 12 11 9 9 9 10 11 11 11 10 9 8 9 9 9 9
5 4 3 4 5 6 5 5 7 7 7 8 7 8 8 6 7 7 5 7 9 5 4 8 10 11 14 17 16 12 9 6 5 5 6 9 12 13 12 10 8 8 8 7 6 5 5 6 6 7 6 4 5 6 7 6 4 3 3 8 10 8 8 9 9 10 11 12 10 11 12 11 9 9 10 11 12 13 12 9 8 8 7 8 8 8
5 4 4 5 6 7 5 6 8 7 6 6 6 8 8 7 8 9 8 9 9 6 5 8 11 14 17 17 14 10 9 6 5 7 9 12 12 10 8 7 6 7 6 5 5 6 6 7 6 5 5 5 6 7 6 4 4 6 9 12 9 5 7 8 9 11 11 11 10 9 10 11 10 10 10 11 11 11 12 9 8 8 7 7 8 8
6 6 5 5 5 6 5 7 7 6 6 6 7 9 8 9 9 9 9 11 10 8 6 7 12 15 15 15 13 10 6 5 6 9 12 12 11 9 8 7 6 6 6 6 7 6 6 6 6 6 7 8 8 6 5 5 8 10 11 10 6 4 8 9 10 11 10 10 11 9 10 10 10 10 9 10 10 9 9 8 7 7 7 6 7 8
6 5 5 5 6 7 7 8 7 7 7 8 10 11 11 11 10 8 9 12 11 8 6 8 10 12 14 15 13 8 5 6 8 10 13 13 10 8 8 7 6 6 7 7 7 6 6 7 7 7 8 8 7 6 7 10 11 11 9 5 3 6 9 9 8 9 9 10 11 10 10 9 9 9 8 8 8 7 5 4 5 7 7 6 5 6
6 5 6 6 7 7 7 9 9 9 10 11 12 13 12 11 11 10 10 12 11 7 9 10 7 12 20 17 10 6 6 7 9 13 14 10 7 6 6 6 6 7 8 7 8 7 8 8 8 9 10 9 9 9 10 10 8 6 4 3 5 8 8 7 5 5 6 8 11 11 10 9 9 9 8 7 6 6 5 2 2 4 5 7 6 5
7 7 7 7 7 9 10 12 12 12 12 12 13 14 13 12 13 11 9 10 10 9 13 9 2 11 19 11 4 7 8 8 12 13 9 5 6 6 7 8 8 8 8 8 9 10 10 11 11 11 11 10 10 9 8 8 6 5 4 4 5 4 1 0 0 1 3 6 9 11 10 8 8 7 7 6 5 5 6 5 3 3 3 4 7 7
7 7 8 8 8 10 13 14 13 12 11 13 14 13 12 12 11 9 9 10 10 12 13 4 -0 10 12 6 8 10 8 9 10 8 5 5 7 7 7 8 8 9 11 11 12 12 11 11 10 9 9 8 8 7 5 4 3 2 2 2 2 1 1 3 5 6 7 8 7 7 7 5 4 5 5 5 6 5 5 5 4 3 3 4 6 7
9 10 11 11 10 11 12 11 11 11 13 15 15 13 13 12 9 9 10 9 8 10 8 2 4 11 10 8 11 8 5 8 8 6 7 7 8 8 7 8 10 11 12 10 9 8 7 6 5 5 4 4 4 3 2 3 3 3 4 3 3 3 4 4 4 4 4 4 4 4 6 6 5 4 3 2 3 4 4 5 5 4 3 3 3 5
12 14 14 14 15 16 18 15 12 12 15 16 14 13 12 10 9 9 9 9 9 8 9 9 7 7 9 8 6 5 6 8 7 7 8 7 7 7 7 9 10 8 6 6 5 4 2 1 2 3 4 4 4 4 4 5 5 5 6 6 7 9 11 12 15 19 22 24 26 28 28 28 27 26 24 22 18 14 7 3 2 2 2 2 1 2
15 17 16 14 15 17 18 15 12 13 14 13 12 10 9 8 9 10 10 11 9 5 8 11 4 3 9 8 5 7 7 6 6 7 6 6 7 6 5 6 6 5 4 4 3 2 3 5 6 6 4 3 4 6 9 12 15 17 19 21 24 26 28 30 32 33 33 32 31 31 29 27 28 29 30 31 33 33 29 21 12 6 3 2 2 1
17 17 15 14 14 15 13 11 10 11 10 10 9 9 9 9 10 11 11 9 6 3 6 10 6 6 10 9 7 8 6 4 6 6 6 8 7 5 5 5 4 3 3 3 4 5 6 6 5 6 9 14 19 22 24 25 24 23 22 21 21 20 19 19 17 16 15 14 12 12 11 11 12 13 13 15 18 22 28 30 28 21 13 9 8 4
14 14 12 11 12 12 10 10 10 10 11 11 10 9 10 10 9 9 9 7 6 7 8 9 8 9 10 8 6 6 6 6 7 7 8 9 6 4 3 2 2 4 5 6 5 4 6 10 16 23 27 27 25 21 17 14 11 10 11 11 12 13 12 12 12 11 11 11 11 10 11 11 12 12 13 14 14 14 16 21 25 25 21 16 14 12
11 12 11 11 13 13 10 10 10 11 11 10 7 7 8 8 8 9 10 10 9 9 9 8 8 9 8 5 5 8 8 7 8 8 8 6 4 2 1 3 6 7 6 5 7 14 22 28 29 25 19 12 9 7 6 8 10 13 16 18 19 18 18 16 16 15 15 15 15 14 15 15 15 15 16 17 19 19 19 20 22 22 22 18 15 15
10 12 12 12 16 16 12 10 10 9 8 7 7 8 9 8 8 9 10 9 7 6 7 7 6 8 6 4 7 9 7 6 7 6 5 4 2 2 3 6 6 5 8 16 25 31 28 21 13 8 5 6 7 9 12 15 17 19 20 20 20 19 17 16 16 17 18 17 17 18 18 17 17 18 22 25 27 29 30 31 30 28 25 21 16 14
10 12 12 11 14 14 10 9 9 8 7 8 9 8 7 6 6 8 8 8 7 7 7 7 7 8 6 6 8 7 5 5 6 5 5 3 3 4 5 6 10 18 28 32 29 20 10 6 5 6 8 9 10 12 16 18 18 19 18 16 17 17 15 14 14 14 15 16 18 19 18 18 21 23 24 25 25 27 30 32 37 40 38 31 20 14
10 10 9 8 9 10 9 9 10 9 8 7 6 5 5 5 6 7 8 9 10 9 9 9 8 7 7 8 8 4 5 6 5 8 9 6 4 6 9 17 26 32 29 20 10 5 5 6 7 8 9 11 14 17 19 20 18 17 16 16 17 17 16 15 14 12 14 16 17 20 22 23 22 18 13 11 11 12 14 16 23 33 43 47 35 18
8 8 7 8 8 10 10 8 7 8 5 4 4 5 6 6 6 5 7 11 10 7 7 8 7 7 8 7 4 2 3 5 8 14 12 6 6 13 22 31 31 22 12 6 4 5 6 6 6 9 13 15 18 20 20 20 19 17 18 19 19 19 17 15 14 12 14 17 20 24 25 19 13 8 6 6 6 6 7 7 8 13 26 47 56 36
7 7 8 8 8 8 7 5 5 6 4 4 6 7 7 8 7 6 9 12 9 4 5 6 6 6 6 4 3 3 1 2 11 19 13 5 11 22 28 26 17 9 5 4 4 5 6 8 10 13 16 18 20 21 20 18 17 17 20 22 21 19 17 15 15 17 19 23 25 21 15 9 7 9 10 9 8 9 9 8 8 8 7 22 53 60
9 9 9 7 6 5 4 4 6 6 6 7 7 8 8 8 8 7 7 7 3 2 5 6 5 5 4 4 5 4 3 3 9 16 13 8 15 22 19 14 8 5 5 4 6 8 9 11 13 15 17 19 19 18 15 13 15 17 20 21 19 18 17 17 19 23 26 25 18 9 4 5 7 8 9 10 12 13 12 9 9 10 8 6 29 63
9 8 6 4 4 4 4 5 6 6 7 8 7 9 9 8 9 9 8 7 4 4 7 5 4 6 5 6 7 5 5 6 7 11 10 8 16 21 18 14 9 5 6 7 7 8 8 10 13 13 12 14 17 17 13 10 12 15 18 20 18 17 19 20 22 28 28 18 7 2 4 6 4 4 6 10 15 17 16 15 11 8 12 8 9 44
6 5 4 5 5 6 6 7 8 8 7 7 10 12 11 10 11 9 9 9 7 6 6 4 5 6 4 6 7 6 7 7 7 10 11 12 23 27 19 11 6 5 9 10 9 9 10 9 9 8 8 12 17 19 16 11 10 13 17 19 18 18 19 21 24 27 22 8 -0 1 4 4 3 4 4 8 16 20 18 19 18 9 13 15 4 22
5 5 6 7 7 7 8 10 13 13 11 11 12 11 8 8 8 5 5 7 7 6 7 6 6 6 5 6 7 7 8 7 6 11 19 28 33 26 13 6 5 7 9 7 7 8 8 7 7 7 7 9 13 18 20 18 13 11 14 17 18 19 19 20 23 23 14 3 -0 2 2 4 6 5 2 5 13 21 19 17 20 15 13 19 7 7
6 6 7 8 8 9 10 11 11 11 11 12 11 9 7 6 5 4 6 8 7 6 6 6 6 6 6 7 7 8 10 9 12 21 32 37 30 17 8 6 7 8 7 5 6 5 5 8 8 7 6 7 10 13 17 20 17 13 13 16 19 20 18 18 21 18 8 1 2 4 5 6 8 5 3 3 9 22 23 14 16 18 15 18 10 2
7 7 8 8 8 9 10 11 10 9 9 9 9 7 6 5 4 6 7 6 6 7 6 6 7 6 7 8 8 9 11 15 24 32 31 26 16 7 5 5 4 5 5 6 8 6 6 7 6 5 5 5 7 9 11 16 19 17 14 15 19 21 17 17 19 15 8 4 5 8 9 9 8 6 4 3 8 24 28 14 13 19 16 17 11 0
7 8 9 8 9 10 11 11 8 6 6 6 6 4 5 6 6 7 7 6 7 8 7 6 7 7 7 8 9 11 14 21 30 29 19 12 8 4 3 3 3 5 6 7 7 5 4 5 4 4 4 3 6 8 8 11 16 18 17 14 18 21 19 18 16 9 5 3 4 10 13 11 7 5 4 4 9 25 31 16 12 19 17 17 11 -1
8 9 9 9 10 10 12 10 7 7 8 7 6 3 3 7 8 7 8 7 6 7 7 7 8 9 8 8 9 13 18 23 27 22 14 9 6 3 3 4 5 7 7 6 5 3 3 4 3 3 3 4 6 6 6 9 12 17 19 15 15 19 21 22 17 9 5 4 6 13 17 14 9 4 3 5 10 27 34 17 9 19 19 18 11 -3
9 9 9 10 12 11 10 7 4 6 7 7 7 8 8 9 8 6 7 7 6 7 7 7 9 11 11 10 11 15 20 23 23 20 15 11 7 4 4 5 6 6 5 4 3 3 4 3 2 3 3 4 5 4 6 8 8 13 19 18 15 15 19 24 23 16 11 9 9 14 17 16 12 5 4 8 12 27 33 15 10 21 20 18 12 -3
10 12 11 11 11 10 8 7 6 7 7 8 9 10 9 8 6 6 6 7 8 9 8 8 10 11 13 12 12 15 20 23 23 21 16 11 8 5 5 6 5 4 3 3 3 3 3 2 2 3 3 4 5 4 6 8 7 9 14 17 16 15 15 21 25 23 17 10 9 14 17 17 14 9 8 10 13 26 30 15 13 23 19 16 13 -1
11 12 11 10 9 6 5 6 7 6 5 6 7 7 6 6 6 7 7 7 8 9 8 9 10 11 11 11 10 14 20 24 23 19 14 10 8 7 6 4 3 3 2 2 2 2 2 2 2 3 3 4 5 4 5 8 8 7 10 13 16 18 17 17 21 24 21 12 8 13 18 19 18 15 11 10 17 30 27 13 15 22 17 17 12 -1
13 11 10 9 6 4 3 2 2 4 5 6 5 3 3 3 3 4 5 5 6 7 8 10 10 10 12 13 12 13 19 23 22 17 13 10 9 9 8 5 4 4 2 2 3 2 1 1 2 2 3 3 4 3 4 7 8 8 9 10 12 19 22 19 17 22 23 16 9 9 14 20 20 15 9 11 24 32 23 12 16 19 18 19 10 4
10 7 5 3 1 3 6 5 3 2 3 4 4 2 1 2 2 2 4 6 7 8 9 10 10 11 12 14 14 15 17 20 19 15 12 10 9 10 10 8 7 6 5 4 3 2 2 2 2 3 4 3 3 3 3 4 6 7 8 9 11 17 22 22 19 20 22 20 11 3 5 14 18 14 9 16 30 32 19 11 14 18 22 20 9 16
7 5 5 4 2 3 4 3 2 -0 -3 -4 -2 1 3 4 5 5 5 6 8 8 8 10 13 15 15 14 14 15 16 17 17 15 13 12 12 12 13 11 10 10 8 7 6 4 4 4 3 4 4 3 2 3 2 3 5 6 7 9 10 14 20 25 23 19 21 23 16 5 2 8 16 16 14 22 34 29 16 13 18 21 22 18 16 31
5 4 3 3 3 1 0 2 6 9 9 6 5 5 6 6 5 5 4 5 8 9 9 10 14 18 19 19 16 13 13 14 16 17 15 14 13 14 15 14 14 13 11 10 9 8 6 5 6 5 4 3 3 3 3 3 4 5 8 9 9 12 18 25 25 21 21 22 18 10 3 6 15 19 20 29 35 25 16 21 23 19 19 22 31 41
5 5 4 5 6 6 7 7 8 10 10 9 7 6 5 5 4 4 4 6 9 11 11 13 16 17 18 20 19 14 11 13 16 17 17 15 13 13 13 14 14 15 15 14 13 11 9 8 8 7 6 5 5 3 3 4 4 6 9 9 8 10 16 23 26 23 21 21 18 11 6 8 18 23 25 33 33 23 24 28 20 18 28 32 31 32
Height
5810 5809 5808 5807 5806 5805 5804 5803 5801 5799 5797 5795 5794 5792 5790 5788 5787 5784 5782 5780 5777 5776 5774 5771 5769 5767 5765 5762 5759 5757 5754 5752 5749 5747 5744 5740 5737 5734 5731 5727 5724 5720 5717 5713 5710 5707 5704 5701 5698 5695 5691 5688 5684 5680 5677 5673 5670 5666 5663 5659 5656 5652 5649 5645 5642 5639 5635 5631 5628 5624 5620 5616 5612 5608 5604 5599 5594 5589 5585 5581 5577 5572 5566 5560 5554 5549
5808 5807 5806 5805 5804 5803 5801 5800 5798 5796 5794 5793 5791 5789 5787 5785 5783 5781 5779 5776 5774 5772 5771 5768 5766 5764 5762 5759 5756 5753 5750 5747 5745 5743 5739 5736 5732 5729 5726 5722 5719 5715 5712 5709 5705 5702 5699 5696 5693 5690 5686 5683 5679 5675 5672 5668 5665 5661 5657 5654 5650 5647 5643 5640 5637 5633 5629 5626 5622 5618 5614 5610 5605 5601 5597 5593 5588 5583 5578 5574 5570 5565 5559 5553 5548 5542
5806 5805 5804 5803 5802 5800 5799 5797 5795 5793 5791 5790 5788 5786 5784 5782 5779 5778 5775 5773 5770 5769 5767 5765 5762 5761 5759 5755 5752 5749 5746 5743 5741 5738 5734 5731 5727 5724 5721 5717 5714 5711 5707 5704 5700 5697 5694 5691 5688 5684 5681 5677 5674 5670 5667 5663 5660 5656 5652 5649 5645 5641 5638 5634 5631 5627 5623 5619 5616 5612 5607 5603 5599 5594 5590 5586 5581 5576 5571 5567 5563 5558 5552 5546 5541 5536
5804 5803 5802 5801 5799 5798 5796 5794 5792 5790 5788 5786 5784 5782 5780 5778 5776 5774 5772 5769 5767 5764 5763 5760 5758 5757 5755 5751 5749 5745 5741 5738 5736 5733 5729 5726 5723 5719 5716 5712 5709 5706 5702 5699 5695 5692 5689 5686 5683 5679 5675 5672 5668 5665 5661 5658 5655 5651 5647 5643 5640 5636 5632 5629 5625 5621 5617 5613 5609 5605 5601 5597 5592 5587 5583 5579 5574 5570 5565 5560 5556 5551 5546 5540 5534 5529
5802 5801 5799 5798 5796 5795 5793 5791 5789 5787 5785 5783 5781 5779 5776 5774 5772 5770 5768 5765 5763 5760 5758 5756 5754 5754 5752 5747 5744 5741 5736 5733 5731 5727 5724 5720 5717 5714 5710 5707 5704 5701 5698 5694 5691 5687 5684 5681 5678 5674 5670 5666 5663 5659 5656 5652 5649 5646 5642 5638 5634 5630 5626 5622 5619 5615 5611 5607 5603 5599 5594 5590 5586 5581 5576 5572 5567 5563 5558 5554 5549 5544 5540 5534 5529 5523
5800 5798 5797 5795 5794 5792 5790 5788 5786 5784 5782 5780 5778 5775 5773 5771 5768 5766 5763 5761 5759 5757 5755 5752 5749 5749 5748 5743 5739 5735 5731 5728 5725 5722 5718 5715 5712 5709 5705 5701 5698 5695 5693 5689 5686 5683 5679 5676 5672 5669 5665 5661 5657 5654 5650 5647 5644 5640 5636 5632 5628 5624 5620 5616 5612 5609 5604 5600 5596 5592 5587 5583 5578 5574 5569 5564 5560 5555 5551 5546 5542 5537 5533 5528 5523 5517
5797 5795 5794 5792 5790 5789 5787 5785 5783 5780 5778 5776 5775 5772 5770 5767 5765 5762 5760 5757 5755 5752 5751 5748 5743 5743 5744 5740 5734 5730 5726 5723 5720 5717 5713 5710 5707 5704 5700 5696 5693 5690 5687 5684 5681 5678 5674 5671 5667 5663 5659 5656 5652 5649 5645 5642 5638 5634 5630 5627 5623 5618 5614 5610 5606 5602 5598 5593 5589 5585 5581 5576 5571 5567 5562 5557 5552 5548 5544 5539 5534 5530 5525 5521 5517 5511
5794 5793 5791 5789 5788 5786 5784 5782 5779 5777 5775 5773 5771 5768 5766 5764 5761 5759 5756 5753 5751 5748 5747 5745 5739 5736 5737 5735 5730 5726 5721 5717 5715 5711 5708 5705 5701 5698 5695 5691 5688 5685 5681 5678 5675 5672 5669 5665 5662 5658 5654 5650 5647 5644 5640 5636 5632 5628 5625 5621 5617 5612 5608 5603 5599 5595 5590 5586 5582 5578 5573 5569 5564 5559 5555 5550 5545 5541 5537 5532 5528 5523 5519 5514 5510 5505
5792 5790 5788 5787 5785 5783 5781 5778 5776 5774 5771 5769 5767 5764 5762 5760 5757 5755 5752 5749 5747 5744 5742 5740 5735 5731 5731 5729 5725 5721 5717 5712 5709 5706 5702 5699 5695 5693 5690 5687 5683 5679 5675 5673 5670 5667 5664 5660 5656 5653 5649 5646 5642 5639 5635 5631 5626 5622 5618 5614 5610 5606 5601 5596 5592 5588 5583 5579 5575 5570 5566 5561 5557 5552 5547 5543 5538 5534 5530 5525 5521 5517 5512 5508 5504 5499
5789 5787 5785 5784 5782 5780 5778 5775 5773 5770 5768 5765 5763 5761 5758 5756 5753 5750 5748 5745 5742 5740 5738 5735 5731 5726 5726 5725 5719 5715 5712 5708 5704 5701 5696 5693 5690 5687 5684 5681 5678 5674 5670 5667 5665 5662 5658 5654 5650 5647 5644 5641 5637 5633 5629 5625 5620 5616 5612 5608 5604 5599 5594 5590 5585 5581 5576 5572 5567 5563 5558 5554 5549 5545 5540 5535 5531 5527 5523 5518 5514 5510 5506 5501 5498 5493
5786 5784 5783 5781 5778 5776 5774 5772 5770 5767 5764 5762 5759 5757 5754 5751 5749 5746 5744 5741 5737 5735 5733 5730 5726 5720 5719 5720 5714 5709 5706 5703 5699 5695 5691 5687 5684 5682 5679 5676 5673 5669 5665 5662 5659 5656 5652 5648 5645 5641 5639 5635 5631 5627 5623 5618 5614 5610 5605 5601 5597 5592 5587 5583 5578 5574 5569 5564 5560 5555 5551 5546 5542 5537 5533 5528 5524 5519 5515 5511 5507 5503 5499 5495 5491 5487
5783 5781 5780 5778 5775 5773 5771 5768 5766 5764 5761 5758 5755 5752 5749 5747 5745 5742 5740 5737 5733 5730 5727 5724 5721 5716 5713 5713 5710 5704 5700 5697 5694 5690 5685 5680 5678 5676 5673 5669 5667 5663 5661 5657 5654 5650 5646 5643 5639 5636 5633 5629 5625 5621 5616 5612 5607 5603 5598 5594 5590 5585 5580 5575 5571 5566 5562 5557 5552 5548 5543 5539 5534 5530 5526 5521 5517 5512 5508 5504 5500 5496 5493 5489 5485 5481
5781 5779 5777 5774 5772 5770 5767 5765 5762 5760 5757 5754 5752 5748 5744 5741 5739 5737 5735 5732 5729 5726 5722 5718 5715 5712 5709 5707 5705 5701 5694 5691 5688 5684 5678 5674 5672 5671 5668 5664 5661 5658 5655 5651 5647 5644 5640 5637 5633 5630 5626 5622 5618 5614 5610 5605 5601 5596 5592 5587 5582 5578 5573 5568 5564 5559 5554 5550 5545 5540 5536 5532 5527 5523 5518 5514 5510 5506 5501 5497 5493 5489 5485 5482 5478 5475
5778 5776 5774 5771 5769 5767 5764 5762 5759 5756 5754 5751 5748 5744 5740 5736 5733 5731 5730 5727 5724 5721 5717 5713 5709 5708 5706 5702 5699 5696 5689 5685 5682 5677 5671 5668 5667 5666 5663 5660 5656 5653 5649 5645 5641 5637 5634 5630 5627 5623 5619 5615 5611 5607 5603 5599 5594 5589 5585 5580 5575 5570 5566 5561 5557 5552 5547 5542 5538 5533 5529 5524 5520 5516 5511 5507 5503 5499 5494 5490 5486 5482 5478 5475 5471 5468
5774 5773 5771 5768 5766 5764 5761 5758 5755 5752 5749 5747 5744 5740 5736 5732 5727 5725 5724 5721 5718 5716 5713 5710 5705 5703 5702 5698 5695 5691 5686 5680 5676 5670 5665 5662 5661 5660 5658 5655 5651 5647 5643 5639 5635 5631 5627 5624 5620 5616 5612 5608 5604 5600 5596 5591 5586 5582 5577 5572 5568 5563 5558 5554 5549 5545 5540 5535 5530 5526 5521 5517 5513 5509 5504 5500 5496 5492 5488 5483 5479 5476 5472 5468 5465 5461
5770 5769 5767 5765 5762 5760 5757 5754 5751 5747 5745 5742 5739 5735 5732 5729 5724 5720 5718 5715 5711 5708 5708 5707 5703 5700 5699 5695 5691 5687 5682 5676 5670 5665 5660 5657 5657 5656 5653 5649 5644 5640 5636 5632 5629 5625 5621 5617 5613 5609 5605 5601 5596 5592 5588 5583 5579 5574 5569 5565 5561 5556 5551 5546 5541 5537 5532 5527 5523 5518 5513 5509 5505 5501 5497 5493 5489 5485 5481 5477 5473 5469 5466 5462 5458 5455
5767 5765 5763 5761 5758 5756 5753 5750 5747 5743 5740 5737 5734 5731 5727 5724 5720 5715 5712 5710 5705 5700 5700 5701 5698 5696 5695 5692 5687 5683 5677 5671 5665 5660 5656 5655 5655 5652 5648 5642 5637 5633 5630 5627 5623 5619 5615 5611 5606 5602 5598 5593 5589 5584 5580 5575 5570 5566 5561 5557 5553 5548 5543 5538 5533 5528 5523 5519 5515 5510 5505 5501 5497 5493 5489 5486 5481 5477 5474 5470 5466 5463 5459 5455 5452 5448
5763 5762 5760 5758 5755 5752 5749 5745 5742 5739 5736 5733 5729 5726 5722 5719 5716 5711 5706 5703 5700 5694 5691 5694 5693 5691 5690 5689 5684 5679 5672 5666 5660 5655 5653 5653 5653 5648 5643 5637 5632 5629 5625 5621 5617 5613 5609 5605 5600 5596 5591 5586 5582 5577 5572 5567 5562 5558 5553 5548 5544 5539 5534 5529 5525 5520 5516 5511 5507 5502 5498 5493 5489 5485 5481 5478 5474 5470 5466 5463 5460 5456 5453 5449 5445 5442
5760 5758 5757 5755 5752 5748 5745 5741 5738 5735 5732 5728 5725 5722 5718 5714 5710 5706 5701 5697 5693 5688 5684 5685 5686 5686 5686 5684 5680 5673 5666 5660 5655 5652 5651 5651 5648 5643 5637 5632 5627 5624 5620 5616 5612 5608 5603 5598 5594 5589 5585 5580 5575 5569 5564 5559 5555 5550 5545 5540 5536 5531 5526 5521 5516 5512 5508 5503 5499 5494 5489 5485 5481 5477 5473 5470 5466 5463 5459 5455 5452 5449 5446 5442 5439 5436
5756 5753 5752 5751 5748 5744 5741 5737 5734 5731 5727 5724 5721 5717 5713 5709 5705 5701 5696 5692 5688 5683 5678 5675 5675 5680 5683 5679 5673 5667 5659 5653 5650 5648 5648 5646 5641 5635 5629 5625 5622 5618 5613 5609 5605 5601 5596 5592 5587 5582 5577 5572 5567 5562 5557 5552 5547 5542 5537 5532 5527 5522 5518 5513 5508 5503 5499 5495 5490 5486 5481 5477 5473 5469 5465 5462 5458 5455 5451 5448 5444 5441 5438 5435 5432 5429
5752 5749 5747 5746 5744 5740 5736 5733 5729 5726 5722 5719 5716 5712 5708 5704 5700 5696 5692 5689 5684 5679 5676 5668 5663 5670 5677 5672 5666 5660 5653 5649 5646 5644 5643 5639 5634 5628 5623 5618 5615 5611 5607 5603 5598 5594 5590 5585 5580 5575 5569 5564 5559 5554 5548 5543 5539 5534 5528 5523 5518 5514 5509 5503 5498 5494 5490 5486 5482 5478 5473 5469 5465 5461 5457 5453 5450 5447 5443 5440 5437 5433 5431 5428 5425 5422
5747 5745 5743 5742 5739 5736 5732 5729 5725 5721 5718 5715 5711 5708 5704 5699 5695 5690 5686 5685 5680 5675 5675 5667 5656 5663 5672 5667 5658 5653 5647 5644 5641 5639 5637 5632 5626 5622 5617 5612 5607 5603 5600 5596 5591 5587 5582 5577 5572 5567 5562 5556 5551 5546 5541 5535 5530 5525 5520 5514 5509 5504 5499 5494 5489 5485 5481 5477 5473 5469 5465 5460 5456 5452 5448 5445 5442 5438 5435 5432 5429 5426 5423 5420 5417 5414
5743 5740 5738 5737 5734 5731 5728 5724 5720 5717 5713 5710 5707 5703 5699 5694 5691 5686 5682 5680 5675 5670 5671 5665 5653 5657 5665 5660 5651 5646 5641 5638 5635 5632 5628 5624 5620 5615 5610 5606 5602 5597 5593 5588 5584 5579 5573 5568 5563 5558 5553 5548 5543 5538 5533 5527 5522 5516 5511 5505 5499 5495 5489 5484 5480 5475 5471 5467 5463 5459 5455 5451 5447 5443 5440 5436 5433 5430 5426 5423 5421 5418 5415 5412 5409 5407
5738 5735 5733 5731 5730 5727 5724 5720 5716 5712 5709 5706 5703 5699 5694 5690 5687 5683 5679 5675 5670 5667 5667 5660 5651 5652 5656 5652 5645 5640 5636 5633 5630 5625 5621 5617 5614 5610 5605 5600 5595 5591 5586 5581 5576 5571 5565 5559 5554 5548 5544 5539 5535 5529 5524 5518 5513 5507 5502 5496 5490 5485 5480 5474 5469 5465 5461 5457 5453 5449 5445 5440 5436 5433 5430 5426 5424 5421 5417 5414 5412 5409 5406 5404 5401 5399
5733 5730 5727 5725 5723 5722 5719 5715 5711 5708 5705 5702 5699 5694 5689 5686 5683 5680 5677 5672 5666 5663 5661 5657 5650 5649 5649 5646 5641 5636 5631 5628 5625 5620 5616 5611 5608 5604 5599 5594 5588 5583 5578 5573 5568 5563 5557 5551 5545 5539 5534 5529 5524 5519 5514 5508 5503 5497 5492 5485 5479 5474 5470 5464 5459 5454 5450 5445 5441 5437 5433 5428 5423 5420 5417 5415 5412 5410 5406 5403 5402 5400 5397 5395 5393 5391
5729 5726 5723 5719 5716 5714 5712 5707 5703 5701 5699 5697 5694 5689 5685 5682 5679 5676 5672 5668 5662 5657 5655 5652 5647 5645 5646 5642 5635 5631 5627 5623 5619 5615 5611 5605 5600 5595 5590 5585 5581 5576 5570 5565 5559 5554 5548 5542 5535 5529 5524 5518 5513 5508 5502 5497 5492 5486 5480 5474 5467 5462 5458 5453 5448 5443 5438 5433 5429 5424 5420 5415 5411 5407 5404 5402 5400 5398 5395 5392 5390 5389 5387 5385 5384 5382
5724 5722 5719 5716 5713 5710 5706 5701 5698 5695 5694 5691 5688 5684 5681 5677 5674 5671 5667 5663 5658 5652 5650 5648 5641 5637 5639 5636 5628 5624 5620 5615 5611 5607 5602 5597 5592 5587 5581 5576 5571 5566 5560 5554 5548 5542 5537 5532 5527 5521 5515 5509 5503 5497 5491 5484 5478 5472 5467 5462 5455 5450 5445 5440 5435 5431 5426 5421 5417 5412 5408 5403 5399 5396 5393 5390 5388 5385 5383 5380 5378 5377 5376 5375 5374 5373
5719 5718 5715 5712 5711 5708 5703 5699 5695 5692 5689 5686 5682 5679 5676 5673 5669 5666 5663 5659 5654 5648 5645 5644 5637 5631 5632 5629 5622 5618 5614 5608 5604 5599 5593 5588 5583 5578 5573 5567 5562 5556 5550 5544 5537 5531 5527 5522 5517 5511 5505 5498 5492 5486 5480 5474 5468 5461 5455 5450 5445 5439 5434 5429 5425 5420 5415 5411 5406 5402 5397 5393 5389 5386 5382 5379 5377 5374 5371 5369 5366 5365 5364 5364 5364 5363
5714 5713 5711 5709 5709 5705 5699 5695 5693 5689 5685 5682 5678 5674 5672 5669 5665 5662 5659 5655 5650 5644 5640 5638 5633 5628 5625 5621 5617 5612 5606 5601 5596 5591 5586 5581 5575 5570 5564 5559 5553 5548 5542 5536 5531 5524 5518 5512 5506 5499 5494 5488 5482 5477 5471 5465 5459 5452 5446 5440 5434 5428 5423 5418 5414 5409 5404 5400 5395 5390 5386 5382 5378 5375 5371 5368 5365 5362 5360 5358 5355 5353 5352 5352 5352 5352
5710 5709 5707 5705 5706 5703 5696 5692 5689 5685 5682 5678 5674 5671 5669 5665 5661 5658 5655 5651 5645 5640 5635 5632 5629 5625 5620 5615 5611 5606 5599 5594 5588 5583 5579 5574 5567 5561 5556 5551 5546 5540 5535 5528 5521 5515 5508 5502 5497 5490 5484 5479 5473 5467 5461 5455 5449 5443 5435 5429 5423 5417 5411 5406 5402 5397 5393 5388 5384 5379 5375 5371 5367 5363 5360 5357 5353 5351 5348 5346 5343 5342 5340 5340 5340 5340
5706 5704 5702 5700 5701 5699 5694 5689 5686 5682 5678 5674 5671 5668 5665 5661 5656 5652 5649 5646 5641 5636 5631 5626 5622 5620 5615 5609 5605 5600 5593 5587 5582 5577 5572 5567 5560 5552 5546 5542 5537 5531 5525 5518 5511 5506 5500 5495 5489 5483 5476 5469 5463 5456 5449 5442 5437 5431 5425 5419 5413 5406 5400 5395 5391 5386 5382 5378 5374 5369 5364 5360 5357 5353 5350 5346 5343 5340 5337 5334 5332 5330 5328 5328 5328 5328
5703 5700 5698 5695 5695 5694 5690 5686 5683 5679 5674 5670 5667 5664 5660 5656 5651 5647 5643 5640 5635 5630 5626 5621 5615 5612 5608 5603 5600 5595 5589 5582 5575 5569 5563 5558 5552 5545 5538 5532 5526 5520 5514 5508 5503 5497 5492 5487 5481 5475 5467 5460 5453 5446 5438 5431 5426 5422 5416 5411 5405 5399 5392 5387 5381 5376 5372 5368 5364 5360 5356 5351 5348 5344 5340 5337 5334 5331 5327 5324 5321 5319 5317 5316 5316 5317
5700 5697 5694 5691 5689 5689 5686 5682 5679 5675 5670 5666 5662 5659 5655 5651 5647 5642 5638 5633 5628 5622 5617 5613 5609 5604 5600 5596 5592 5589 5585 5578 5570 5561 5553 5546 5542 5538 5531 5523 5517 5511 5505 5499 5494 5488 5483 5478 5473 5466 5459 5451 5444 5438 5431 5424 5418 5413 5407 5401 5396 5390 5384 5379 5373 5367 5362 5358 5354 5351 5347 5344 5340 5336 5332 5329 5326 5323 5320 5316 5313 5309 5307 5305 5304 5305
5697 5693 5690 5687 5684 5683 5681 5677 5674 5671 5666 5661 5658 5654 5650 5646 5641 5637 5632 5627 5621 5616 5611 5606 5603 5598 5593 5588 5583 5579 5577 5573 5565 5556 5546 5538 5531 5527 5523 5516 5509 5504 5499 5492 5486 5481 5475 5470 5465 5458 5451 5443 5436 5430 5424 5417 5410 5404 5399 5392 5386 5381 5375 5370 5365 5359 5354 5350 5346 5342 5339 5336 5333 5329 5325 5322 5319 5316 5312 5308 5305 5302 5298 5296 5294 5295
5693 5690 5687 5683 5679 5677 5675 5672 5669 5666 5661 5656 5652 5648 5644 5640 5635 5632 5628 5622 5616 5612 5607 5601 5596 5591 5587 5582 5575 5570 5566 5564 5560 5550 5540 5532 5524 5516 5511 5507 5501 5495 5490 5483 5478 5473 5467 5462 5457 5450 5443 5435 5428 5421 5415 5409 5402 5396 5390 5384 5377 5372 5366 5361 5357 5351 5346 5341 5338 5334 5331 5328 5325 5321 5318 5314 5311 5308 5304 5300 5297 5294 5291 5288 5286 5285
5690 5687 5683 5680 5676 5673 5670 5667 5663 5660 5656 5651 5647 5643 5639 5635 5630 5626 5624 5621 5612 5606 5601 5596 5590 5584 5579 5574 5568 5561 5557 5556 5555 5545 5530 5522 5517 5509 5502 5497 5491 5486 5480 5474 5468 5463 5458 5453 5447 5439 5432 5424 5417 5410 5405 5399 5393 5387 5381 5375 5369 5363 5357 5352 5347 5343 5338 5334 5330 5327 5323 5320 5317 5313 5310 5306 5303 5299 5295 5292 5289 5286 5283 5280 5278 5275
5687 5684 5680 5676 5673 5669 5665 5662 5659 5655 5651 5646 5642 5638 5633 5629 5624 5618 5616 5615 5608 5600 5594 5589 5583 5578 5573 5567 5561 5555 5548 5545 5547 5541 5525 5513 5508 5503 5497 5491 5483 5478 5474 5468 5463 5458 5451 5445 5438 5430 5422 5415 5408 5401 5395 5389 5384 5377 5372 5366 5360 5354 5348 5343 5339 5334 5331 5327 5323 5319 5316 5312 5309 5305 5301 5297 5294 5290 5287 5283 5280 5277 5275 5272 5270 5267
5684 5681 5677 5673 5669 5665 5661 5657 5654 5650 5646 5641 5636 5632 5626 5622 5617 5611 5607 5606 5601 5594 5587 5580 5574 5569 5564 5559 5553 5547 5539 5533 5536 5535 5522 5510 5503 5497 5491 5487 5480 5473 5468 5462 5457 5453 5448 5441 5434 5426 5417 5409 5403 5396 5389 5382 5376 5370 5364 5358 5352 5346 5341 5335 5331 5327 5323 5320 5316 5312 5308 5304 5300 5296 5292 5288 5285 5281 5278 5274 5271 5269 5266 5264 5261 5258
5681 5678 5674 5669 5665 5661 5657 5652 5648 5644 5640 5636 5632 5627 5622 5617 5612 5606 5602 5599 5595 5588 5580 5573 5566 5559 5553 5548 5542 5536 5528 5520 5520 5523 5516 5505 5499 5492 5486 5482 5477 5470 5464 5456 5449 5445 5441 5436 5430 5422 5414 5404 5397 5390 5383 5377 5370 5363 5357 5351 5345 5339 5333 5328 5323 5319 5316 5312 5309 5305 5300 5296 5292 5288 5283 5280 5276 5272 5269 5266 5262 5260 5257 5255 5252 5250
5677 5673 5669 5665 5661 5656 5652 5648 5644 5639 5635 5632 5627 5622 5618 5613 5606 5599 5595 5592 5588 5583 5575 5566 5559 5551 5544 5538 5533 5528 5521 5509 5503 5504 5502 5495 5491 5486 5478 5472 5467 5462 5457 5451 5444 5438 5434 5429 5422 5415 5407 5399 5391 5384 5377 5371 5365 5358 5350 5344 5338 5332 5327 5321 5317 5312 5308 5304 5300 5296 5292 5287 5283 5279 5274 5270 5267 5263 5260 5257 5253 5250 5248 5246 5243 5241
5672 5668 5664 5660 5656 5651 5647 5643 5639 5634 5630 5626 5621 5615 5611 5607 5602 5595 5588 5582 5577 5574 5567 5559 5551 5544 5537 5532 5527 5521 5516 5506 5495 5489 5487 5482 5479 5476 5471 5463 5458 5453 5447 5441 5435 5429 5425 5421 5413 5405 5397 5389 5381 5374 5368 5362 5356 5350 5344 5337 5331 5325 5320 5315 5310 5305 5301 5297 5293 5288 5283 5279 5275 5270 5265 5261 5257 5254 5251 5247 5244 5241 5239 5237 5235 5233
5667 5663 5659 5654 5650 5646 5642 5638 5634 5630 5626 5620 5615 5609 5602 5597 5593 5588 5582 5576 5568 5562 5558 5553 5545 5537 5530 5526 5521 5514 5507 5501 5492 5484 5479 5475 5469 5466 5462 5456 5450 5445 5440 5433 5427 5420 5415 5411 5406 5399 5390 5382 5373 5366 5359 5353 5348 5342 5335 5329 5324 5318 5313 5308 5303 5298 5294 5290 5285 5280 5275 5270 5266 5261 5257 5252 5247 5244 5241 5238 5234 5232 5229 5227 5225 5224
5662 5658 5654 5649 5645 5641 5637 5632 5627 5624 5620 5614 5609 5604 5597 5589 5583 5578 5574 5570 5563 5555 5549 5546 5539 5530 5520 5515 5512 5507 5498 5492 5486 5480 5474 5470 5464 5459 5454 5448 5442 5436 5431 5425 5419 5413 5406 5402 5398 5391 5383 5374 5366 5358 5350 5344 5339 5335 5328 5321 5315 5309 5304 5299 5294 5289 5285 5281 5276 5271 5266 5261 5257 5252 5248 5243 5238 5234 5232 5229 5225 5222 5220 5218 5216 5215
5658 5654 5649 5645 5640 5636 5632 5627 5622 5617 5613 5607 5600 5596 5592 5584 5576 5569 5563 5560 5557 5551 5543 5537 5532 5524 5513 5504 5500 5497 5490 5483 5478 5473 5467 5462 5458 5453 5447 5442 5435 5429 5424 5418 5412 5406 5399 5394 5389 5384 5376 5367 5358 5350 5342 5334 5329 5326 5321 5313 5306 5301 5295 5290 5285 5280 5276 5271 5266 5261 5257 5252 5248 5243 5238 5234 5229 5224 5222 5219 5216 5213 5211 5209 5207 5206
5653 5649 5645 5641 5636 5631 5626 5622 5617 5612 5608 5602 5595 5590 5586 5581 5573 5565 5557 5551 5547 5542 5535 5527 5521 5515 5507 5498 5491 5488 5482 5474 5469 5465 5458 5452 5448 5444 5438 5434 5428 5421 5415 5410 5404 5397 5391 5386 5381 5375 5369 5362 5352 5343 5335 5326 5318 5315 5312 5306 5299 5292 5286 5281 5276 5271 5266 5261 5257 5252 5247 5242 5238 5233 5229 5224 5219 5215 5212 5209 5206 5204 5201 5200 5198 5197
5649 5645 5641 5636 5632 5628 5622 5617 5613 5609 5604 5598 5591 5585 5581 5577 5570 5563 5556 5549 5542 5534 5527 5518 5510 5502 5494 5486 5479 5476 5472 5465 5458 5455 5450 5443 5438 5434 5429 5424 5420 5414 5407 5401 5396 5390 5384 5379 5374 5368 5362 5357 5348 5339 5331 5322 5312 5304 5300 5296 5290 5284 5278 5272 5267 5261 5257 5252 5247 5242 5237 5233 5228 5223 5219 5214 5209 5205 5202 5199 5197 5194 5193 5191 5189 5188
5645 5641 5637 5632 5628 5625 5620 5615 5611 5606 5600 5594 5589 5583 5578 5574 5568 5559 5551 5543 5536 5528 5520 5512 5503 5493 5485 5476 5468 5464 5461 5455 5447 5443 5440 5434 5428 5424 5420 5415 5411 5406 5399 5393 5387 5382 5376 5370 5366 5361 5355 5349 5343 5335 5327 5319 5309 5300 5292 5286 5281 5275 5270 5264 5258 5252 5248 5243 5239 5233 5228 5223 5218 5213 5209 5204 5200 5196 5193 5190 5188 5186 5184 5182 5180 5179
5641 5637 5633 5629 5624 5619 5615 5611 5608 5605 5599 5590 5582 5577 5572 5566 5560 5552 5543 5534 5527 5519 5513 5506 5497 5486 5477 5468 5460 5454 5451 5446 5439 5433 5429 5424 5418 5413 5409 5405 5400 5396 5391 5385 5379 5373 5367 5361 5356 5352 5346 5339 5333 5327 5320 5312 5304 5295 5287 5280 5273 5266 5261 5255 5249 5243 5238 5234 5229 5224 5219 5214 5208 5203 5198 5194 5190 5186 5183 5181 5179 5178 5176 5173 5172 5171
5636 5632 5628 5624 5620 5615 5609 5604 5602 5601 5598 5589 5578 5570 5563 5557 5552 5546 5538 5529 5520 5512 5505 5499 5492 5482 5470 5460 5450 5444 5440 5437 5431 5425 5420 5414 5408 5403 5399 5395 5390 5385 5380 5376 5371 5365 5359 5352 5345 5341 5336 5329 5323 5317 5312 5305 5298 5289 5281 5273 5266 5258 5252 5246 5240 5234 5229 5224 5219 5214 5210 5204 5199 5193 5188 5184 5180 5177 5175 5172 5171 5169 5167 5165 5164 5163
5631 5627 5622 5619 5616 5611 5603 5596 5589 5586 5586 5583 5575 5566 5558 5552 5546 5541 5533 5524 5515 5505 5496 5489 5484 5478 5470 5459 5446 5436 5429 5426 5421 5415 5411 5405 5398 5393 5388 5384 5379 5375 5370 5364 5360 5356 5351 5343 5336 5330 5325 5319 5313 5307 5301 5295 5289 5282 5274 5266 5258 5251 5244 5237 5232 5227 5220 5215 5210 5205 5200 5195 5189 5184 5179 5175 5171 5168 5166 5164 5162 5161 5159 5158 5156 5156
5625 5621 5616 5612 5608 5603 5597 5590 5582 5575 5572 5570 5565 5558 5551 5544 5538 5533 5525 5516 5507 5497 5487 5478 5470 5464 5459 5454 5446 5433 5422 5417 5412 5406 5401 5397 5391 5384 5379 5374 5368 5363 5358 5353 5348 5344 5341 5336 5329 5322 5317 5311 5304 5298 5292 5285 5279 5272 5266 5258 5250 5242 5235 5228 5222 5218 5212 5206 5201 5196 5191 5185 5180 5175 5170 5166 5163 5160 5158 5157 5155 5153 5152 5151 5150 5150